Tracking 19562 objects as of 21-Mar-2019
HD Live streaming from Space Station
objects crossing your sky now

ASTRID 2

Track ASTRID 2 now!
10-day predictions
ASTRID 2 is classified as:


NORAD ID: 25568
Int'l Code: 1998-072B
Perigee: 979.8 km
Apogee: 1,015.3 km
Inclination: 82.9 °
Period: 104.9 minutes
Semi major axis: 7368 km
RCS: 0.534 m2 (medium)
Launch date: December 10, 1998
Source: Sweden (SWED)
Launch site: PLESETSK MISSILE AND SPACE COMPLEX (PKMTR)
aabbcc
Your satellite tracking list
Your tracking list is empty




NASA's NSSDC Master Catalog

Two Line Element Set (TLE):
1 25568U 98072B   19079.87602933  .00000043  00000-0  30602-4 0  9998
2 25568  82.9483 234.1520 0024095 235.7391 276.8862 13.72555200 15431
Source of the keplerian elements: AFSPC